User: anonymous   Login
Location: UBC Liquid-Mirror Observatory
(49.2876°N, 122.5728°W)
Time: 02:08:51
(UTC-07:00)
Language:

Cosmos 1315 - Orbit

View from above orbital plane
View from above orbital plane
View from above satellite
View from above satellite

Ground track
Ground track

The orbit data is extracted from the following two-line orbital elements,

1 12903U 81103A   14303.55790958  .00043735  00000-0  67797-3 0  3206
2 12903 081.1332 343.2953 0004798 160.8118 357.5828 15.53808544811288
Epoch (UTC): 30 October 2014 13:23:23
Eccentricity: 0.0004798
inclination: 81.1332°
perigee height: 402 km
apogee height: 409 km
right ascension of ascending node: 343.2953°
argument of perigee: 160.8118°
revolutions per day: 15.53808544
mean anomaly at epoch: 357.5828°
orbit number at epoch: 81128

The dashed part of the orbit path shows where the satellite is in the earth's shadow,  

DLR